User: anonymous   Login
Location: Unspecified
(0.0000°N, 0.0000°E)
Time: 20:41:19
(UTC+00:00)
Language:

COSMOS 2481 - Orbit

View from above orbital plane
View from above orbital plane
View from above satellite
View from above satellite

Ground track
Ground track

The orbit data is extracted from the following two-line orbital elements,

1 38733U 12041A   17172.69469088 +.00000034 +00000-0 +17563-3 0  9992
2 38733 082.4738 321.5736 0018629 026.7697 333.4338 12.42371103222229
Epoch (UTC): 21 June 2017 16:40:21
Eccentricity: 0.0018629
inclination: 82.4738°
perigee height: 1482 km
apogee height: 1511 km
right ascension of ascending node: 321.5736°
argument of perigee: 26.7697°
revolutions per day: 12.42371103
mean anomaly at epoch: 333.4338°
orbit number at epoch: 22222

The dashed part of the orbit path shows where the satellite is in the earth's shadow,  

DLR